Location: Unspecified
(0.0000°N, 0.0000°E)
Time: 15:23:59
(UTC+00:00)

Explorer 7 - Visible Passes

Search period start: 09 August 2020 00:00
Search period end: 19 August 2020 00:00
Orbit: 485 x 679 km, 50.3° (Epoch: 08 August)

Date Brightness Start Highest point End Pass type
(mag) Time Alt. Az. Time Alt. Az. Time Alt. Az.
09 Aug 7.6 04:44:01 10° NNW 04:47:58 53° NE 04:52:12 10° SE visible
10 Aug 6.7 04:50:08 22° NW 04:52:41 68° SW 04:57:00 10° SSE visible
11 Aug 7.6 04:57:19 30° SW 04:57:27 30° SW 05:01:17 10° S visible
12 Aug 9.0 05:03:56 12° SSW 05:03:56 12° SSW 05:04:46 10° SSW visible
